Regional Weather Roundup
Issued by NWS

Home | Current Version | Previous Version | Graphics & Text | Print | Product List | Glossary On
Versions: 1 2 3 4 5 6 7 8 9 10 11 12 13 14 15 16 17 18 19 20 21 22 23 24 25 26 27 28 29 30 31 32 33 34 35 36 37 38 39 40 41 42 43 44 45 46 47 48 49 50
000
ASUS45 KABQ 282201
RWRNM
NEW MEXICO REGIONAL WEATHER ROUNDUP
NATIONAL WEATHER SERVICE ALBUQUERQUE NM
400 PM MDT FRI AUG 28 2015

NOTE: "FAIR" MEANS FEW OR NO CLOUDS BELOW 12,000 FEET AGL WITH NO
       SIGNIFICANT WEATHER OR OBSTRUCTIONS TO VISION.

      THIS PRODUCT IS RELEASED AS TWO VERSIONS.  ONE VERSION NEAR
      THE TOP OF THE HOUR CONTAINING PRELIMINARY DATA FROM ALBUQUERQUE
      AND OTHER STATIONS.  A FINAL VERSION WITH ADDITIONAL DATA IS
      ISSUED ABOUT 10 MINUTES AFTER THE HOUR.

NMZ501-503-504-510>518-282300-
NORTHWEST PLATEAU/NORTHCENTRAL MOUNTAINS

CITY           SKY/WX    TMP DP  RH WIND       PRES   REMARKS
FARMINGTON     SUNNY     90  34  13 W9G21     30.13F
LOS ALAMOS     PTSUNNY   75  45  33 S7        30.31F
SANTA FE       PTSUNNY   85  36  17 VRB5      30.22F
TAOS           PTSUNNY   81  45  28 SE12      30.30F
ANGEL FIRE     MOCLDY    65  50  58 S9        30.43S

$$
NMZ402-403-502-505>509-282300-
WESTCENTRAL MOUNTAINS/SOUTHWEST MOUNTAINS

CITY           SKY/WX    TMP DP  RH WIND       PRES   REMARKS
GALLUP         PTSUNNY   82  39  21 N12       30.25F
GRANTS         MOSUNNY   84  40  21 NW9       30.25F
SILVER CITY      N/A     84  48  28 W9        30.18S

$$
NMZ407-409-411-412-282300-
SOUTHERN DESERTS

CITY           SKY/WX    TMP DP  RH WIND       PRES   REMARKS
DEMING         MOSUNNY   93  49  22 N18G24    30.06F
LAS CRUCES     PTSUNNY   91  49  23 W10       30.06F
HOLLOMAN AFB   PTSUNNY   93  47  20 W13       30.00F
ALAMOGORDO     PTSUNNY   91  48  22 W10       30.02F
T OR C         CLOUDY    90  50  25 VRB3      30.08F

$$
NMZ519>523-282300-
CENTRAL VALLEYS/CENTRAL HIGHLANDS

CITY           SKY/WX    TMP DP  RH WIND       PRES   REMARKS
ALBUQUERQUE    PTSUNNY   91  45  20 NE8       30.13F
DOUBLE EAGLE   PTSUNNY   84  48  28 NW7       30.18
MORIARTY ARPT  FAIR      79  51  36 W8        30.22F
CLINES CORNERS HVY RAIN  63  51  65 SE22      30.31R VSB 3/4
BELEN          FAIR      91  44  19 N3        30.12F
SOCORRO        FAIR      88  45  22 NE7       30.10F

$$
NMZ524>526-539-540-282300-
SOUTHCENTRAL MOUNTAINS

CITY           SKY/WX    TMP DP  RH WIND       PRES   REMARKS
RUIDOSO        LGT RAIN  68  54  60 MISG      30.31R

$$
NMZ527>531-282300-
NORTHEAST HIGHLANDS/NORTHEAST PLAINS

CITY           SKY/WX    TMP DP  RH WIND       PRES   REMARKS
LAS VEGAS      CLOUDY    67  50  54 NW10      30.33S
RATON          CLOUDY    77  43  29 N10       30.26R
CLAYTON        PTSUNNY   69  62  78 N5        30.19S

$$
NMZ532>537-282300-
EASTCENTRAL PLAINS

CITY           SKY/WX    TMP DP  RH WIND       PRES   REMARKS
TUCUMCARI      SUNNY     92  55  28 E13G18    30.06F
CANNON AFB     MOSUNNY   90  56  30 NE16      30.06F
CLOVIS AIRPORT MOSUNNY   90  55  31 E12       30.07S

$$
NMZ028-029-538-282300-
SOUTHEAST PLAINS

CITY           SKY/WX    TMP DP  RH WIND       PRES   REMARKS
ROSWELL        CLOUDY    88  53  30 W20G25    30.02R
ARTESIA        CLOUDY    90  57  33 W20       30.01S
CARLSBAD       NOT AVBL
HOBBS          TSTM      72  64  78 N17       30.01F


$$


USA.gov is the U.S. government's official web portal to all federal, state and local government web resources and services.